Satellite-Ground Cal/Val Region Overpasses Predictions

Prediction of Satellite NPP Overpassing Cal/Val Region: PacNW

Region Location: (Latitude: 10.00, Longitude: 139.50) to (Latitude: 22.70, Longitude: 165.60).

Table of predicted overpasses for the next 14.0 days since TLE Epoch: 7/31/2012
Interval Starting Time Starting Location Ending Time Ending Location
1 07/31/2012 14:32:29 ( 18.37, 165.59) 07/31/2012 14:34:51 ( 10.03, 163.64)
2 07/31/2012 16:12:46 ( 22.64, 141.26) 07/31/2012 16:14:50 ( 15.37, 139.50)
3 08/01/2012 03:21:50 ( 10.00, 148.81) 08/01/2012 03:25:26 ( 22.68, 145.80)
4 08/01/2012 15:53:44 ( 22.68, 146.03) 08/01/2012 15:57:19 ( 10.05, 143.03)
5 08/02/2012 03:02:48 ( 10.03, 153.56) 08/02/2012 03:06:23 ( 22.65, 150.56)
6 08/02/2012 15:34:42 ( 22.65, 150.78) 08/02/2012 15:38:17 ( 10.02, 147.78)
7 08/03/2012 02:43:46 ( 10.00, 158.32) 08/03/2012 02:47:22 ( 22.68, 155.31)
8 08/03/2012 15:15:40 ( 22.67, 155.54) 08/03/2012 15:19:15 ( 10.05, 152.54)
9 08/04/2012 02:24:44 ( 10.03, 163.07) 08/04/2012 02:28:19 ( 22.65, 160.07)
10 08/04/2012 14:56:38 ( 22.64, 160.29) 08/04/2012 15:00:13 ( 10.02, 157.29)
11 08/05/2012 02:08:25 ( 19.58, 165.59) 08/05/2012 02:09:18 ( 22.69, 164.82)
12 08/05/2012 03:47:12 ( 10.01, 142.46) 08/05/2012 03:50:44 ( 22.46, 139.51)
13 08/05/2012 14:37:36 ( 22.67, 165.05) 08/05/2012 14:41:11 ( 10.04, 162.05)
14 08/05/2012 16:19:06 ( 22.66, 139.68) 08/05/2012 16:19:18 ( 21.96, 139.50)
15 08/06/2012 03:28:10 ( 10.05, 147.21) 08/06/2012 03:31:45 ( 22.67, 144.21)
16 08/06/2012 16:00:03 ( 22.68, 144.44) 08/06/2012 16:03:39 ( 10.00, 141.43)
17 08/07/2012 03:09:08 ( 10.03, 151.97) 08/07/2012 03:12:43 ( 22.65, 148.97)
18 08/07/2012 15:41:02 ( 22.64, 149.19) 08/07/2012 15:44:37 ( 10.02, 146.19)
19 08/08/2012 02:50:06 ( 10.01, 156.73) 08/08/2012 02:53:42 ( 22.69, 153.72)
20 08/08/2012 15:21:59 ( 22.66, 153.95) 08/08/2012 15:25:34 ( 10.04, 150.95)
21 08/09/2012 02:31:04 ( 10.05, 161.48) 08/09/2012 02:34:39 ( 22.67, 158.48)
22 08/09/2012 15:02:57 ( 22.68, 158.71) 08/09/2012 15:06:32 ( 10.06, 155.71)
23
